Time,TemperatureF,DewpointF,PressureIn,WindDirection,WindDirectionDegrees,WindSpeedMPH,WindSpeedGustMPH,Humidity,HourlyPrecipIn,Conditions,Clouds,dailyrainin,SoftwareType,DateUTC
2013-09-19 00:04:00,76.4,73.2,29.99,ENE,77,2.0,5.0,90,0.00,,,0.00,Wunderground v.1.15,2013-09-19 05:04:00,
2013-09-19 00:10:00,76.4,73.2,29.99,ENE,67,1.0,2.0,90,0.00,,,0.00,Wunderground v.1.15,2013-09-19 05:10:00,
2013-09-19 00:16:00,76.4,73.2,29.99,ENE,61,1.0,3.0,90,0.00,,,0.00,Wunderground v.1.15,2013-09-19 05:16:00,
2013-09-19 00:22:00,76.2,73.1,29.99,NE,53,1.0,3.0,90,0.00,,,0.00,Wunderground v.1.15,2013-09-19 05:22:00,
2013-09-19 00:28:00,76.1,73.0,29.99,NNE,23,1.0,4.0,90,0.00,,,0.00,Wunderground v.1.15,2013-09-19 05:28:00,
2013-09-19 00:33:00,76.1,73.0,29.99,NE,51,1.0,5.0,90,0.00,,,0.00,Wunderground v.1.15,2013-09-19 05:33:00,
2013-09-19 00:39:00,76.2,73.1,29.99,ENE,61,1.0,2.0,90,0.00,,,0.00,Wunderground v.1.15,2013-09-19 05:39:00,
2013-09-19 00:45:00,76.2,73.1,29.99,ESE,104,2.0,4.0,90,0.00,,,0.00,Wunderground v.1.15,2013-09-19 05:45:00,
2013-09-19 00:51:00,76.2,73.1,29.99,NE,46,1.0,3.0,90,0.00,,,0.00,Wunderground v.1.15,2013-09-19 05:51:00,
2013-09-19 00:57:00,76.2,73.4,29.99,ENE,65,3.0,5.0,91,0.00,,,0.00,Wunderground v.1.15,2013-09-19 05:57:00,
2013-09-19 01:03:00,76.2,73.4,29.99,East,91,1.0,2.0,91,0.00,,,0.00,Wunderground v.1.15,2013-09-19 06:03:00,
2013-09-19 01:09:00,76.3,73.5,29.99,NE,46,1.0,4.0,91,0.00,,,0.00,Wunderground v.1.15,2013-09-19 06:09:00,
2013-09-19 01:14:00,76.6,73.8,29.99,NNE,20,1.0,6.0,91,0.00,,,0.00,Wunderground v.1.15,2013-09-19 06:14:00,
2013-09-19 01:20:00,76.8,73.6,29.99,ENE,77,1.0,2.0,90,0.00,,,0.00,Wunderground v.1.15,2013-09-19 06:20:00,
2013-09-19 01:26:00,77.0,74.2,29.98,East,89,3.0,4.0,91,0.00,,,0.00,Wunderground v.1.15,2013-09-19 06:26:00,
2013-09-19 01:32:00,77.2,74.0,29.98,ENE,65,1.0,3.0,90,0.00,,,0.00,Wunderground v.1.15,2013-09-19 06:32:00,
2013-09-19 01:38:00,77.3,74.1,29.98,ESE,107,0.0,3.0,90,0.00,,,0.00,Wunderground v.1.15,2013-09-19 06:38:00,
2013-09-19 01:44:00,77.3,74.1,29.98,North,359,2.0,2.0,90,0.00,,,0.00,Wunderground v.1.15,2013-09-19 06:44:00,
2013-09-19 01:50:00,77.3,74.1,29.98,North,354,1.0,2.0,90,0.00,,,0.00,Wunderground v.1.15,2013-09-19 06:50:00,
2013-09-19 01:56:00,77.3,74.1,29.99,ENE,67,1.0,3.0,90,0.00,,,0.00,Wunderground v.1.15,2013-09-19 06:56:00,
2013-09-19 02:01:00,77.4,74.6,29.98,East,91,1.0,2.0,91,0.00,,,0.00,Wunderground v.1.15,2013-09-19 07:01:00,
2013-09-19 02:06:00,77.5,74.3,29.98,NE,51,2.0,9.0,90,0.00,,,0.00,Wunderground v.1.15,2013-09-19 07:06:00,
2013-09-19 02:11:00,77.7,74.5,29.98,East,85,3.0,10.0,90,0.00,,,0.00,Wunderground v.1.15,2013-09-19 07:11:00,
2013-09-19 02:16:00,77.8,74.6,29.98,NE,47,2.0,10.0,90,0.00,,,0.00,Wunderground v.1.15,2013-09-19 07:16:00,
2013-09-19 02:21:00,77.7,74.5,29.98,ESE,110,0.0,4.0,90,0.00,,,0.00,Wunderground v.1.15,2013-09-19 07:21:00,
2013-09-19 02:26:00,77.7,74.5,29.98,ENE,61,3.0,8.0,90,0.00,,,0.00,Wunderground v.1.15,2013-09-19 07:26:00,
2013-09-19 02:31:00,77.7,74.5,29.97,ENE,72,1.0,4.0,90,0.00,,,0.00,Wunderground v.1.15,2013-09-19 07:31:00,
2013-09-19 02:36:00,77.8,74.6,29.97,East,81,3.0,7.0,90,0.00,,,0.00,Wunderground v.1.15,2013-09-19 07:36:00,
2013-09-19 02:41:00,78.0,75.2,29.97,East,85,1.0,4.0,91,0.00,,,0.00,Wunderground v.1.15,2013-09-19 07:41:00,
2013-09-19 02:46:00,78.2,75.4,29.97,NNE,13,7.0,8.0,91,0.00,,,0.00,Wunderground v.1.15,2013-09-19 07:46:00,
2013-09-19 02:51:00,78.5,75.7,29.97,ENE,67,9.0,10.0,91,0.00,,,0.00,Wunderground v.1.15,2013-09-19 07:51:00,
2013-09-19 02:56:00,78.7,75.8,29.97,East,89,6.0,11.0,91,0.00,,,0.00,Wunderground v.1.15,2013-09-19 07:56:00,
2013-09-19 03:01:00,79.1,76.6,29.97,East,88,3.0,9.0,92,0.00,,,0.00,Wunderground v.1.15,2013-09-19 08:01:00,
2013-09-19 03:06:00,79.3,76.4,29.97,East,82,5.0,11.0,91,0.00,,,0.00,Wunderground v.1.15,2013-09-19 08:06:00,
2013-09-19 03:11:00,79.3,76.4,29.97,East,88,5.0,7.0,91,0.00,,,0.00,Wunderground v.1.15,2013-09-19 08:11:00,
2013-09-19 03:16:00,79.2,76.3,29.97,ENE,57,5.0,9.0,91,0.00,,,0.00,Wunderground v.1.15,2013-09-19 08:16:00,
2013-09-19 03:21:00,78.9,76.0,29.97,North,356,2.0,6.0,91,0.00,,,0.00,Wunderground v.1.15,2013-09-19 08:21:00,
2013-09-19 03:26:00,78.5,75.7,29.96,ENE,68,3.0,7.0,91,0.00,,,0.00,Wunderground v.1.15,2013-09-19 08:26:00,
2013-09-19 03:31:00,78.2,75.4,29.96,ENE,63,4.0,10.0,91,0.00,,,0.00,Wunderground v.1.15,2013-09-19 08:31:00,
2013-09-19 03:36:00,77.9,75.1,29.96,ESE,122,2.0,10.0,91,0.00,,,0.00,Wunderground v.1.15,2013-09-19 08:36:00,
2013-09-19 03:41:00,77.7,74.9,29.96,East,84,3.0,4.0,91,0.00,,,0.00,Wunderground v.1.15,2013-09-19 08:41:00,
2013-09-19 03:46:00,77.5,75.0,29.96,East,84,2.0,7.0,92,0.00,,,0.00,Wunderground v.1.15,2013-09-19 08:46:00,
2013-09-19 03:51:00,77.4,74.9,29.96,ENE,68,3.0,4.0,92,0.00,,,0.00,Wunderground v.1.15,2013-09-19 08:51:00,
2013-09-19 03:56:00,77.4,74.9,29.96,ENE,67,3.0,6.0,92,0.00,,,0.00,Wunderground v.1.15,2013-09-19 08:56:00,
2013-09-19 04:01:00,77.3,74.8,29.96,NE,56,1.0,2.0,92,0.00,,,0.00,Wunderground v.1.15,2013-09-19 09:01:00,
2013-09-19 04:06:00,77.2,75.0,29.96,ESE,104,3.0,5.0,93,0.00,,,0.00,Wunderground v.1.15,2013-09-19 09:06:00,
2013-09-19 04:11:00,77.2,75.0,29.97,NNE,23,2.0,4.0,93,0.00,,,0.00,Wunderground v.1.15,2013-09-19 09:11:00,
2013-09-19 04:16:00,77.3,75.1,29.97,East,80,2.0,6.0,93,0.00,,,0.00,Wunderground v.1.15,2013-09-19 09:16:00,
2013-09-19 04:21:00,77.2,75.0,29.96,ENE,60,2.0,5.0,93,0.00,,,0.00,Wunderground v.1.15,2013-09-19 09:21:00,
2013-09-19 04:26:00,77.1,74.9,29.96,East,91,4.0,5.0,93,0.00,,,0.00,Wunderground v.1.15,2013-09-19 09:26:00,
2013-09-19 04:31:00,77.1,74.9,29.96,East,79,0.0,3.0,93,0.00,,,0.00,Wunderground v.1.15,2013-09-19 09:31:00,
2013-09-19 04:36:00,77.0,74.8,29.96,NE,54,2.0,5.0,93,0.00,,,0.00,Wunderground v.1.15,2013-09-19 09:36:00,
2013-09-19 04:41:00,76.9,75.0,29.96,ENE,69,2.0,3.0,94,0.00,,,0.00,Wunderground v.1.15,2013-09-19 09:41:00,
2013-09-19 04:46:00,76.8,74.9,29.96,ENE,57,1.0,5.0,94,0.00,,,0.00,Wunderground v.1.15,2013-09-19 09:46:00,
2013-09-19 04:51:00,76.6,74.7,29.97,NNE,23,1.0,4.0,94,0.00,,,0.00,Wunderground v.1.15,2013-09-19 09:51:00,
2013-09-19 04:56:00,76.4,74.5,29.97,North,11,2.0,4.0,94,0.00,,,0.00,Wunderground v.1.15,2013-09-19 09:56:00,
2013-09-19 05:01:00,76.3,74.4,29.97,ENE,68,1.0,2.0,94,0.00,,,0.00,Wunderground v.1.15,2013-09-19 10:01:00,
2013-09-19 05:06:00,76.3,74.4,29.97,ENE,74,0.0,4.0,94,0.00,,,0.00,Wunderground v.1.15,2013-09-19 10:06:00,
2013-09-19 05:11:00,76.3,74.4,29.97,ENE,65,1.0,3.0,94,0.00,,,0.00,Wunderground v.1.15,2013-09-19 10:11:00,
2013-09-19 05:16:00,76.2,74.3,29.97,North,352,1.0,5.0,94,0.00,,,0.00,Wunderground v.1.15,2013-09-19 10:16:00,
2013-09-19 05:21:00,76.1,74.2,29.97,ENE,68,0.0,3.0,94,0.00,,,0.00,Wunderground v.1.15,2013-09-19 10:21:00,
2013-09-19 05:26:00,76.0,74.1,29.97,NNE,31,2.0,5.0,94,0.00,,,0.00,Wunderground v.1.15,2013-09-19 10:26:00,
2013-09-19 05:31:00,76.0,74.1,29.97,NNE,16,1.0,3.0,94,0.00,,,0.00,Wunderground v.1.15,2013-09-19 10:31:00,
2013-09-19 05:36:00,75.9,74.0,29.97,North,354,3.0,5.0,94,0.00,,,0.00,Wunderground v.1.15,2013-09-19 10:36:00,
2013-09-19 05:41:00,75.8,73.9,29.97,NNE,32,2.0,4.0,94,0.00,,,0.00,Wunderground v.1.15,2013-09-19 10:41:00,
2013-09-19 05:46:00,75.7,74.2,29.97,North,11,1.0,5.0,95,0.00,,,0.00,Wunderground v.1.15,2013-09-19 10:46:00,
2013-09-19 05:51:00,75.6,74.1,29.97,ENE,62,1.0,5.0,95,0.00,,,0.00,Wunderground v.1.15,2013-09-19 10:51:00,
2013-09-19 05:56:00,75.6,74.1,29.97,East,84,2.0,5.0,95,0.00,,,0.00,Wunderground v.1.15,2013-09-19 10:56:00,
2013-09-19 06:01:00,75.5,74.0,29.97,East,90,3.0,4.0,95,0.00,,,0.00,Wunderground v.1.15,2013-09-19 11:01:00,
2013-09-19 06:06:00,75.5,74.0,29.97,East,85,2.0,4.0,95,0.00,,,0.00,Wunderground v.1.15,2013-09-19 11:06:00,
2013-09-19 06:11:00,75.5,74.0,29.97,NNE,20,1.0,2.0,95,0.00,,,0.00,Wunderground v.1.15,2013-09-19 11:11:00,
2013-09-19 06:16:00,75.4,73.9,29.97,ENE,67,1.0,4.0,95,0.00,,,0.00,Wunderground v.1.15,2013-09-19 11:16:00,
2013-09-19 06:21:00,75.4,73.9,29.98,ENE,67,3.0,4.0,95,0.00,,,0.00,Wunderground v.1.15,2013-09-19 11:21:00,
2013-09-19 06:26:00,75.3,73.8,29.97,NNW,345,1.0,4.0,95,0.00,,,0.00,Wunderground v.1.15,2013-09-19 11:26:00,
2013-09-19 06:31:00,75.2,73.7,29.98,NE,43,2.0,3.0,95,0.00,,,0.00,Wunderground v.1.15,2013-09-19 11:31:00,
2013-09-19 06:36:00,75.2,73.7,29.97,ENE,61,3.0,6.0,95,0.00,,,0.00,Wunderground v.1.15,2013-09-19 11:36:00,
2013-09-19 06:41:00,75.0,73.8,29.98,ESE,113,2.0,4.0,96,0.00,,,0.00,Wunderground v.1.15,2013-09-19 11:41:00,
2013-09-19 06:46:00,75.0,73.8,29.98,NNW,345,2.0,6.0,96,0.00,,,0.00,Wunderground v.1.15,2013-09-19 11:46:00,
2013-09-19 06:51:00,74.9,73.7,29.98,North,4,1.0,3.0,96,0.00,,,0.00,Wunderground v.1.15,2013-09-19 11:51:00,
2013-09-19 06:56:00,74.9,73.7,29.98,ENE,64,0.0,4.0,96,0.00,,,0.00,Wunderground v.1.15,2013-09-19 11:56:00,
2013-09-19 07:01:00,74.8,73.6,29.98,ENE,61,0.0,3.0,96,0.00,,,0.00,Wunderground v.1.15,2013-09-19 12:01:00,
2013-09-19 07:06:00,74.8,73.6,29.98,East,79,3.0,5.0,96,0.00,,,0.00,Wunderground v.1.15,2013-09-19 12:06:00,
2013-09-19 07:11:00,74.9,73.7,29.98,ESE,120,1.0,3.0,96,0.00,,,0.00,Wunderground v.1.15,2013-09-19 12:11:00,
2013-09-19 07:17:00,75.0,73.8,29.99,NE,50,0.0,6.0,96,0.00,,,0.00,Wunderground v.1.15,2013-09-19 12:17:00,
2013-09-19 07:22:00,75.1,73.9,29.99,NE,51,1.0,3.0,96,0.00,,,0.00,Wunderground v.1.15,2013-09-19 12:22:00,
2013-09-19 07:27:00,75.2,74.0,29.99,NE,41,2.0,3.0,96,0.00,,,0.00,Wunderground v.1.15,2013-09-19 12:27:00,
2013-09-19 07:32:00,75.3,73.8,29.99,ENE,59,1.0,4.0,95,0.00,,,0.00,Wunderground v.1.15,2013-09-19 12:32:00,
2013-09-19 07:37:00,75.7,74.2,29.99,ENE,71,2.0,5.0,95,0.00,,,0.00,Wunderground v.1.15,2013-09-19 12:37:00,
2013-09-19 07:42:00,76.0,74.5,29.99,East,94,2.0,4.0,95,0.00,,,0.00,Wunderground v.1.15,2013-09-19 12:42:00,
2013-09-19 07:47:00,76.4,74.5,29.99,ENE,74,2.0,9.0,94,0.00,,,0.00,Wunderground v.1.15,2013-09-19 12:47:00,
2013-09-19 07:52:00,77.0,75.1,29.99,ENE,64,4.0,5.0,94,0.00,,,0.00,Wunderground v.1.15,2013-09-19 12:52:00,
2013-09-19 07:57:00,77.5,75.3,29.99,East,99,10.0,11.0,93,0.00,,,0.00,Wunderground v.1.15,2013-09-19 12:57:00,
2013-09-19 08:02:00,78.0,75.5,29.99,East,85,4.0,11.0,92,0.00,,,0.00,Wunderground v.1.15,2013-09-19 13:02:00,
2013-09-19 08:07:00,78.2,75.7,29.99,East,94,7.0,11.0,92,0.00,,,0.00,Wunderground v.1.15,2013-09-19 13:07:00,
2013-09-19 08:12:00,78.5,76.0,30.00,East,97,5.0,9.0,92,0.00,,,0.00,Wunderground v.1.15,2013-09-19 13:12:00,
2013-09-19 08:17:00,79.0,76.1,30.00,East,99,6.0,12.0,91,0.00,,,0.00,Wunderground v.1.15,2013-09-19 13:17:00,
2013-09-19 08:22:00,79.2,76.0,30.00,East,79,5.0,12.0,90,0.00,,,0.00,Wunderground v.1.15,2013-09-19 13:22:00,
2013-09-19 08:27:00,79.0,76.1,30.00,NE,56,4.0,15.0,91,0.00,,,0.00,Wunderground v.1.15,2013-09-19 13:27:00,
2013-09-19 08:32:00,79.1,76.2,30.00,East,94,9.0,11.0,91,0.00,,,0.00,Wunderground v.1.15,2013-09-19 13:32:00,
2013-09-19 08:37:00,79.5,76.6,30.00,NE,56,3.0,11.0,91,0.00,,,0.00,Wunderground v.1.15,2013-09-19 13:37:00,
2013-09-19 08:42:00,79.6,76.4,30.00,ENE,65,8.0,18.0,90,0.00,,,0.00,Wunderground v.1.15,2013-09-19 13:42:00,
2013-09-19 08:47:00,79.6,76.7,30.00,East,94,12.0,18.0,91,0.00,,,0.00,Wunderground v.1.15,2013-09-19 13:47:00,
2013-09-19 08:52:00,79.6,76.4,30.00,ENE,78,5.0,16.0,90,0.00,,,0.00,Wunderground v.1.15,2013-09-19 13:52:00,
2013-09-19 08:57:00,79.5,76.6,30.01,NE,44,7.0,16.0,91,0.00,,,0.00,Wunderground v.1.15,2013-09-19 13:57:00,
2013-09-19 09:02:00,79.7,76.8,30.01,ESE,105,6.0,14.0,91,0.00,,,0.00,Wunderground v.1.15,2013-09-19 14:02:00,
2013-09-19 09:07:00,79.8,76.6,30.01,ENE,73,9.0,18.0,90,0.00,,,0.00,Wunderground v.1.15,2013-09-19 14:07:00,
2013-09-19 09:12:00,80.2,77.3,30.01,NE,51,13.0,15.0,91,0.00,,,0.00,Wunderground v.1.15,2013-09-19 14:12:00,
2013-09-19 09:17:00,80.9,77.0,30.01,East,94,21.0,21.0,88,0.00,,,0.00,Wunderground v.1.15,2013-09-19 14:17:00,
2013-09-19 09:22:00,81.2,77.3,30.02,ESE,114,12.0,16.0,88,0.00,,,0.00,Wunderground v.1.15,2013-09-19 14:22:00,
2013-09-19 09:27:00,81.2,77.3,30.02,East,100,14.0,19.0,88,0.00,,,0.00,Wunderground v.1.15,2013-09-19 14:27:00,
2013-09-19 09:32:00,81.4,77.5,30.02,East,86,8.0,17.0,88,0.00,,,0.00,Wunderground v.1.15,2013-09-19 14:32:00,
2013-09-19 09:37:00,81.5,77.6,30.02,ENE,76,11.0,17.0,88,0.00,,,0.00,Wunderground v.1.15,2013-09-19 14:37:00,
2013-09-19 09:42:00,81.7,77.8,30.02,ESE,114,9.0,15.0,88,0.00,,,0.00,Wunderground v.1.15,2013-09-19 14:42:00,
2013-09-19 09:47:00,81.7,78.1,30.02,SE,129,9.0,15.0,89,0.00,,,0.00,Wunderground v.1.15,2013-09-19 14:47:00,
2013-09-19 09:52:00,81.6,78.0,30.02,ESE,103,11.0,18.0,89,0.00,,,0.00,Wunderground v.1.15,2013-09-19 14:52:00,
2013-09-19 09:57:00,81.6,77.7,30.02,East,89,11.0,18.0,88,0.00,,,0.00,Wunderground v.1.15,2013-09-19 14:57:00,
2013-09-19 10:02:00,81.9,77.6,30.02,ESE,117,8.0,17.0,87,0.00,,,0.00,Wunderground v.1.15,2013-09-19 15:02:00,
2013-09-19 10:07:00,81.7,77.8,30.02,East,93,7.0,17.0,88,0.00,,,0.00,Wunderground v.1.15,2013-09-19 15:07:00,
2013-09-19 10:12:00,81.8,77.5,30.02,ESE,102,8.0,18.0,87,0.00,,,0.00,Wunderground v.1.15,2013-09-19 15:12:00,
2013-09-19 10:17:00,82.3,77.0,30.02,East,86,6.0,18.0,84,0.00,,,0.00,Wunderground v.1.15,2013-09-19 15:17:00,
2013-09-19 10:22:00,82.8,76.7,30.03,ESE,104,9.0,14.0,82,0.00,,,0.00,Wunderground v.1.15,2013-09-19 15:22:00,
2013-09-19 10:27:00,82.9,76.8,30.03,ESE,120,14.0,15.0,82,0.00,,,0.00,Wunderground v.1.15,2013-09-19 15:27:00,
2013-09-19 10:32:00,82.8,77.8,30.03,SE,136,8.0,17.0,85,0.00,,,0.00,Wunderground v.1.15,2013-09-19 15:32:00,
2013-09-19 10:37:00,82.9,78.3,30.04,East,94,6.0,17.0,86,0.00,,,0.00,Wunderground v.1.15,2013-09-19 15:37:00,
2013-09-19 10:42:00,82.9,78.3,30.03,ESE,120,8.0,17.0,86,0.00,,,0.00,Wunderground v.1.15,2013-09-19 15:42:00,
2013-09-19 10:47:00,83.4,78.8,30.03,ESE,106,7.0,17.0,86,0.00,,,0.00,Wunderground v.1.15,2013-09-19 15:47:00,
2013-09-19 10:52:00,83.6,78.6,30.03,ENE,62,11.0,16.0,85,0.00,,,0.00,Wunderground v.1.15,2013-09-19 15:52:00,
2013-09-19 10:57:00,83.9,78.2,30.03,East,101,12.0,16.0,83,0.00,,,0.00,Wunderground v.1.15,2013-09-19 15:57:00,
2013-09-19 11:02:00,83.9,78.5,30.03,East,86,9.0,17.0,84,0.00,,,0.00,Wunderground v.1.15,2013-09-19 16:02:00,
2013-09-19 11:07:00,84.0,78.6,30.03,East,85,15.0,17.0,84,0.00,,,0.00,Wunderground v.1.15,2013-09-19 16:07:00,
2013-09-19 11:12:00,84.0,78.6,30.03,ESE,113,8.0,15.0,84,0.00,,,0.00,Wunderground v.1.15,2013-09-19 16:12:00,
2013-09-19 11:17:00,84.1,78.4,30.03,East,87,9.0,17.0,83,0.00,,,0.00,Wunderground v.1.15,2013-09-19 16:17:00,
2013-09-19 11:22:00,84.0,78.3,30.03,ESE,108,12.0,19.0,83,0.00,,,0.00,Wunderground v.1.15,2013-09-19 16:22:00,
2013-09-19 11:27:00,83.9,78.5,30.03,ENE,59,14.0,20.0,84,0.00,,,0.00,Wunderground v.1.15,2013-09-19 16:27:00,
2013-09-19 11:32:00,84.0,78.3,30.03,ENE,65,11.0,19.0,83,0.00,,,0.00,Wunderground v.1.15,2013-09-19 16:32:00,
2013-09-19 11:37:00,84.1,78.7,30.02,ENE,77,10.0,19.0,84,0.00,,,0.00,Wunderground v.1.15,2013-09-19 16:37:00,
2013-09-19 11:42:00,83.8,78.1,30.02,East,85,8.0,20.0,83,0.00,,,0.00,Wunderground v.1.15,2013-09-19 16:42:00,
2013-09-19 11:47:00,83.9,78.5,30.02,East,83,11.0,20.0,84,0.00,,,0.00,Wunderground v.1.15,2013-09-19 16:47:00,
2013-09-19 11:52:00,84.0,78.3,30.02,ENE,68,8.0,17.0,83,0.00,,,0.00,Wunderground v.1.15,2013-09-19 16:52:00,
2013-09-19 11:57:00,83.1,77.0,30.02,ENE,72,10.0,19.0,82,0.00,,,0.00,Wunderground v.1.15,2013-09-19 16:57:00,
2013-09-19 12:02:00,82.6,78.0,30.01,East,96,12.0,15.0,86,0.00,,,0.00,Wunderground v.1.15,2013-09-19 17:02:00,
2013-09-19 12:07:00,82.3,78.0,30.01,ENE,77,6.0,17.0,87,0.00,,,0.00,Wunderground v.1.15,2013-09-19 17:07:00,
2013-09-19 12:12:00,82.4,78.1,30.01,ESE,117,10.0,15.0,87,0.00,,,0.00,Wunderground v.1.15,2013-09-19 17:12:00,
2013-09-19 12:17:00,82.5,78.2,30.01,ESE,117,10.0,19.0,87,0.00,,,0.00,Wunderground v.1.15,2013-09-19 17:17:00,
2013-09-19 12:22:00,82.6,78.0,30.01,East,89,16.0,16.0,86,0.00,,,0.00,Wunderground v.1.15,2013-09-19 17:22:00,
2013-09-19 12:27:00,82.6,78.3,30.01,ESE,103,10.0,19.0,87,0.00,,,0.00,Wunderground v.1.15,2013-09-19 17:27:00,
2013-09-19 12:32:00,82.7,78.4,30.01,ESE,108,13.0,19.0,87,0.00,,,0.00,Wunderground v.1.15,2013-09-19 17:32:00,
2013-09-19 12:37:00,82.6,78.3,30.01,ENE,71,8.0,19.0,87,0.00,,,0.00,Wunderground v.1.15,2013-09-19 17:37:00,
2013-09-19 12:42:00,82.7,78.4,30.01,ENE,68,9.0,18.0,87,0.00,,,0.00,Wunderground v.1.15,2013-09-19 17:42:00,
2013-09-19 12:47:00,82.8,78.5,30.01,ENE,76,11.0,18.0,87,0.00,,,0.00,Wunderground v.1.15,2013-09-19 17:47:00,
2013-09-19 12:52:00,82.8,78.5,30.00,ESE,120,15.0,21.0,87,0.00,,,0.00,Wunderground v.1.15,2013-09-19 17:52:00,
2013-09-19 12:57:00,83.0,79.1,30.00,SE,126,14.0,21.0,88,0.00,,,0.00,Wunderground v.1.15,2013-09-19 17:57:00,
2013-09-19 13:02:00,82.9,78.3,30.00,ESE,117,9.0,21.0,86,0.00,,,0.00,Wunderground v.1.15,2013-09-19 18:02:00,
2013-09-19 13:07:00,82.6,78.0,30.00,South,169,6.0,21.0,86,0.00,,,0.00,Wunderground v.1.15,2013-09-19 18:07:00,
2013-09-19 13:12:00,81.5,76.9,30.01,East,99,12.0,18.0,86,0.00,,,0.00,Wunderground v.1.15,2013-09-19 18:12:00,
2013-09-19 13:17:00,81.2,77.0,30.01,SE,138,9.0,18.0,87,0.00,,,0.00,Wunderground v.1.15,2013-09-19 18:17:00,
2013-09-19 13:22:00,81.2,77.0,30.01,ESE,113,11.0,21.0,87,0.00,,,0.00,Wunderground v.1.15,2013-09-19 18:22:00,
2013-09-19 13:27:00,81.3,77.7,30.01,SE,125,13.0,21.0,89,0.00,,,0.00,Wunderground v.1.15,2013-09-19 18:27:00,
2013-09-19 13:32:00,81.2,77.0,30.01,SE,145,16.0,20.0,87,0.00,,,0.00,Wunderground v.1.15,2013-09-19 18:32:00,
2013-09-19 13:37:00,81.4,76.8,30.01,ESE,102,8.0,20.0,86,0.00,,,0.00,Wunderground v.1.15,2013-09-19 18:37:00,
2013-09-19 13:43:00,81.5,77.3,30.00,SSE,148,10.0,15.0,87,0.00,,,0.00,Wunderground v.1.15,2013-09-19 18:43:00,
2013-09-19 13:47:00,82.1,77.5,30.00,SE,145,4.0,15.0,86,0.00,,,0.00,Wunderground v.1.15,2013-09-19 18:47:00,
2013-09-19 13:53:00,82.5,76.1,30.00,SSE,167,6.0,16.0,81,0.00,,,0.00,Wunderground v.1.15,2013-09-19 18:53:00,
2013-09-19 13:57:00,83.3,76.5,29.99,SE,136,6.0,16.0,80,0.00,,,0.00,Wunderground v.1.15,2013-09-19 18:57:00,
2013-09-19 14:03:00,83.9,78.2,29.99,SE,132,10.0,18.0,83,0.00,,,0.00,Wunderground v.1.15,2013-09-19 19:03:00,
2013-09-19 14:08:00,83.4,77.7,29.99,ESE,115,7.0,18.0,83,0.00,,,0.00,Wunderground v.1.15,2013-09-19 19:08:00,
2013-09-19 14:13:00,83.9,78.5,29.99,SE,124,12.0,19.0,84,0.00,,,0.00,Wunderground v.1.15,2013-09-19 19:13:00,
2013-09-19 14:18:00,83.5,77.8,29.99,East,84,9.0,19.0,83,0.00,,,0.00,Wunderground v.1.15,2013-09-19 19:18:00,
2013-09-19 14:23:00,83.1,77.4,30.00,ESE,103,11.0,17.0,83,0.00,,,0.00,Wunderground v.1.15,2013-09-19 19:23:00,
2013-09-19 14:28:00,82.1,76.8,30.00,ESE,108,11.0,18.0,84,0.00,,,0.00,Wunderground v.1.15,2013-09-19 19:28:00,
2013-09-19 14:33:00,81.9,76.2,30.00,SE,130,7.0,18.0,83,0.00,,,0.00,Wunderground v.1.15,2013-09-19 19:33:00,
2013-09-19 14:38:00,82.5,76.4,29.99,SE,126,12.0,18.0,82,0.00,,,0.00,Wunderground v.1.15,2013-09-19 19:38:00,
2013-09-19 14:43:00,82.9,77.6,29.99,SE,142,10.0,19.0,84,0.00,,,0.00,Wunderground v.1.15,2013-09-19 19:43:00,
2013-09-19 14:48:00,82.8,77.5,29.99,East,89,8.0,21.0,84,0.00,,,0.00,Wunderground v.1.15,2013-09-19 19:48:00,
2013-09-19 14:53:00,82.5,77.5,29.99,ESE,111,13.0,19.0,85,0.00,,,0.00,Wunderground v.1.15,2013-09-19 19:53:00,
2013-09-19 14:58:00,82.8,77.5,29.99,ESE,117,14.0,19.0,84,0.00,,,0.00,Wunderground v.1.15,2013-09-19 19:58:00,
2013-09-19 15:03:00,82.5,75.7,29.98,ESE,102,20.0,21.0,80,0.00,,,0.00,Wunderground v.1.15,2013-09-19 20:03:00,
2013-09-19 15:08:00,82.5,76.4,29.98,East,88,12.0,21.0,82,0.00,,,0.00,Wunderground v.1.15,2013-09-19 20:08:00,
2013-09-19 15:13:00,82.6,77.3,29.98,ESE,113,12.0,17.0,84,0.00,,,0.00,Wunderground v.1.15,2013-09-19 20:13:00,
2013-09-19 15:18:00,82.3,77.3,29.98,SE,128,8.0,17.0,85,0.00,,,0.00,Wunderground v.1.15,2013-09-19 20:18:00,
2013-09-19 15:23:00,81.8,76.8,29.98,East,94,14.0,20.0,85,0.00,,,0.00,Wunderground v.1.15,2013-09-19 20:23:00,
2013-09-19 15:28:00,81.7,76.7,29.98,SE,139,10.0,20.0,85,0.00,,,0.00,Wunderground v.1.15,2013-09-19 20:28:00,
2013-09-19 15:33:00,82.1,77.5,29.98,East,88,11.0,21.0,86,0.00,,,0.00,Wunderground v.1.15,2013-09-19 20:33:00,
2013-09-19 15:38:00,82.5,76.8,29.98,ESE,122,12.0,21.0,83,0.00,,,0.00,Wunderground v.1.15,2013-09-19 20:38:00,
2013-09-19 15:43:00,82.9,76.8,29.98,East,94,11.0,22.0,82,0.00,,,0.00,Wunderground v.1.15,2013-09-19 20:43:00,
2013-09-19 15:48:00,82.4,76.0,29.98,ESE,103,9.0,22.0,81,0.00,,,0.00,Wunderground v.1.15,2013-09-19 20:48:00,
2013-09-19 15:53:00,81.6,77.0,29.98,East,101,12.0,19.0,86,0.00,,,0.00,Wunderground v.1.15,2013-09-19 20:53:00,
2013-09-19 15:58:00,80.7,76.1,29.98,SE,142,13.0,19.0,86,0.00,,,0.00,Wunderground v.1.15,2013-09-19 20:58:00,
2013-09-19 16:03:00,80.5,76.3,29.98,SSE,163,8.0,17.0,87,0.00,,,0.00,Wunderground v.1.15,2013-09-19 21:03:00,
2013-09-19 16:08:00,80.3,76.4,29.98,SE,125,9.0,17.0,88,0.00,,,0.00,Wunderground v.1.15,2013-09-19 21:08:00,
2013-09-19 16:14:00,79.9,75.7,29.98,ESE,104,9.0,18.0,87,0.00,,,0.00,Wunderground v.1.15,2013-09-19 21:14:00,
2013-09-19 16:19:00,80.0,76.1,29.98,ESE,117,5.0,18.0,88,0.00,,,0.00,Wunderground v.1.15,2013-09-19 21:19:00,
2013-09-19 16:24:00,79.9,76.0,29.98,East,99,12.0,16.0,88,0.00,,,0.00,Wunderground v.1.15,2013-09-19 21:24:00,
2013-09-19 16:29:00,80.0,75.8,29.98,SE,129,7.0,18.0,87,0.00,,,0.00,Wunderground v.1.15,2013-09-19 21:29:00,
2013-09-19 16:34:00,79.9,76.0,29.97,ESE,122,7.0,17.0,88,0.00,,,0.00,Wunderground v.1.15,2013-09-19 21:34:00,
2013-09-19 16:39:00,79.8,75.6,29.97,ESE,120,9.0,17.0,87,0.00,,,0.00,Wunderground v.1.15,2013-09-19 21:39:00,
2013-09-19 16:44:00,80.0,75.8,29.97,ESE,110,10.0,14.0,87,0.00,,,0.00,Wunderground v.1.15,2013-09-19 21:44:00,
2013-09-19 16:49:00,80.3,74.7,29.96,ESE,110,12.0,15.0,83,0.00,,,0.00,Wunderground v.1.15,2013-09-19 21:49:00,
2013-09-19 16:54:00,80.6,73.9,29.97,East,96,6.0,14.0,80,0.00,,,0.00,Wunderground v.1.15,2013-09-19 21:54:00,
2013-09-19 16:59:00,80.8,75.2,29.97,ESE,120,10.0,15.0,83,0.00,,,0.00,Wunderground v.1.15,2013-09-19 21:59:00,
2013-09-19 17:04:00,80.5,75.6,29.96,ESE,104,11.0,16.0,85,0.00,,,0.00,Wunderground v.1.15,2013-09-19 22:04:00,
2013-09-19 17:09:00,80.5,75.2,29.97,ESE,117,7.0,16.0,84,0.00,,,0.00,Wunderground v.1.15,2013-09-19 22:09:00,
2013-09-19 17:14:00,80.6,75.0,29.97,ESE,122,7.0,15.0,83,0.00,,,0.00,Wunderground v.1.15,2013-09-19 22:14:00,
2013-09-19 17:19:00,80.6,76.0,29.97,ESE,104,6.0,15.0,86,0.00,,,0.00,Wunderground v.1.15,2013-09-19 22:19:00,
2013-09-19 17:24:00,80.4,75.8,29.96,East,98,13.0,17.0,86,0.00,,,0.00,Wunderground v.1.15,2013-09-19 22:24:00,
2013-09-19 17:29:00,80.4,76.5,29.96,East,99,10.0,17.0,88,0.00,,,0.00,Wunderground v.1.15,2013-09-19 22:29:00,
2013-09-19 17:34:00,80.3,76.4,29.96,ESE,110,5.0,12.0,88,0.00,,,0.00,Wunderground v.1.15,2013-09-19 22:34:00,
2013-09-19 17:39:00,80.4,76.9,29.96,SE,141,8.0,12.0,89,0.00,,,0.00,Wunderground v.1.15,2013-09-19 22:39:00,
2013-09-19 17:44:00,80.5,75.2,29.96,ESE,113,12.0,16.0,84,0.00,,,0.00,Wunderground v.1.15,2013-09-19 22:44:00,
2013-09-19 17:49:00,80.6,75.0,29.96,SE,124,9.0,17.0,83,0.00,,,0.00,Wunderground v.1.15,2013-09-19 22:49:00,
2013-09-19 17:54:00,80.7,75.4,29.96,ESE,108,8.0,13.0,84,0.00,,,0.00,Wunderground v.1.15,2013-09-19 22:54:00,
2013-09-19 17:59:00,80.9,74.1,29.96,ESE,114,14.0,14.0,80,0.00,,,0.00,Wunderground v.1.15,2013-09-19 22:59:00,
2013-09-19 18:04:00,81.2,74.8,29.96,ESE,107,7.0,13.0,81,0.00,,,0.00,Wunderground v.1.15,2013-09-19 23:04:00,
2013-09-19 18:09:00,81.3,74.5,29.97,ESE,113,9.0,14.0,80,0.00,,,0.00,Wunderground v.1.15,2013-09-19 23:09:00,
2013-09-19 18:14:00,81.3,74.5,29.96,SE,136,9.0,14.0,80,0.00,,,0.00,Wunderground v.1.15,2013-09-19 23:14:00,
2013-09-19 18:19:00,81.3,75.3,29.96,East,100,6.0,16.0,82,0.00,,,0.00,Wunderground v.1.15,2013-09-19 23:19:00,
2013-09-19 18:24:00,81.3,75.6,29.96,NE,49,8.0,14.0,83,0.00,,,0.00,Wunderground v.1.15,2013-09-19 23:24:00,
2013-09-19 18:29:00,81.2,75.9,29.95,ENE,71,8.0,16.0,84,0.00,,,0.00,Wunderground v.1.15,2013-09-19 23:29:00,
2013-09-19 18:34:00,81.1,76.5,29.96,ESE,122,8.0,13.0,86,0.00,,,0.00,Wunderground v.1.15,2013-09-19 23:34:00,
2013-09-19 18:39:00,80.9,76.7,29.96,ESE,115,13.0,15.0,87,0.00,,,0.00,Wunderground v.1.15,2013-09-19 23:39:00,
2013-09-19 18:44:00,80.7,76.8,29.95,ESE,122,9.0,15.0,88,0.00,,,0.00,Wunderground v.1.15,2013-09-19 23:44:00,
2013-09-19 18:49:00,80.8,77.3,29.95,ESE,108,12.0,15.0,89,0.00,,,0.00,Wunderground v.1.15,2013-09-19 23:49:00,
2013-09-19 18:54:00,80.9,77.4,29.95,ESE,117,8.0,14.0,89,0.00,,,0.00,Wunderground v.1.15,2013-09-19 23:54:00,
2013-09-19 18:59:00,80.9,77.4,29.95,ESE,120,10.0,14.0,89,0.00,,,0.00,Wunderground v.1.15,2013-09-19 23:59:00,
2013-09-19 19:04:00,80.8,77.3,29.95,SE,132,10.0,17.0,89,0.00,,,0.00,Wunderground v.1.15,2013-09-20 00:04:00,
2013-09-19 19:09:00,80.8,77.6,29.96,ESE,102,7.0,17.0,90,0.00,,,0.00,Wunderground v.1.15,2013-09-20 00:09:00,
2013-09-19 19:14:00,80.8,77.6,29.96,East,94,9.0,14.0,90,0.00,,,0.00,Wunderground v.1.15,2013-09-20 00:14:00,
2013-09-19 19:19:00,80.8,77.3,29.96,SE,128,10.0,17.0,89,0.00,,,0.00,Wunderground v.1.15,2013-09-20 00:19:00,
2013-09-19 19:24:00,80.9,77.4,29.96,SE,129,8.0,14.0,89,0.00,,,0.00,Wunderground v.1.15,2013-09-20 00:24:00,
2013-09-19 19:29:00,81.0,77.1,29.96,SE,126,6.0,14.0,88,0.00,,,0.00,Wunderground v.1.15,2013-09-20 00:29:00,
2013-09-19 19:34:00,81.1,77.2,29.96,SE,127,4.0,14.0,88,0.00,,,0.00,Wunderground v.1.15,2013-09-20 00:34:00,
2013-09-19 19:39:00,81.1,77.5,29.96,SE,134,4.0,14.0,89,0.00,,,0.00,Wunderground v.1.15,2013-09-20 00:39:00,
2013-09-19 19:44:00,81.1,77.2,29.97,ESE,122,9.0,12.0,88,0.00,,,0.00,Wunderground v.1.15,2013-09-20 00:44:00,
2013-09-19 19:49:00,81.1,77.2,29.97,East,101,10.0,12.0,88,0.00,,,0.00,Wunderground v.1.15,2013-09-20 00:49:00,
2013-09-19 19:54:00,81.2,77.6,29.96,SE,136,6.0,11.0,89,0.00,,,0.00,Wunderground v.1.15,2013-09-20 00:54:00,
2013-09-19 19:59:00,81.2,77.6,29.97,ESE,112,8.0,12.0,89,0.00,,,0.00,Wunderground v.1.15,2013-09-20 00:59:00,
2013-09-19 20:04:00,81.2,77.6,29.97,SSE,150,7.0,11.0,89,0.00,,,0.00,Wunderground v.1.15,2013-09-20 01:04:00,
2013-09-19 20:09:00,81.3,77.7,29.97,ESE,122,4.0,11.0,89,0.00,,,0.00,Wunderground v.1.15,2013-09-20 01:09:00,
2013-09-19 20:14:00,81.3,77.7,29.97,East,101,5.0,10.0,89,0.00,,,0.00,Wunderground v.1.15,2013-09-20 01:14:00,
2013-09-19 20:19:00,81.3,77.7,29.97,ESE,102,7.0,11.0,89,0.00,,,0.00,Wunderground v.1.15,2013-09-20 01:19:00,
2013-09-19 20:24:00,81.3,77.7,29.97,ESE,117,5.0,13.0,89,0.00,,,0.00,Wunderground v.1.15,2013-09-20 01:24:00,
2013-09-19 20:29:00,81.2,77.6,29.97,East,101,8.0,13.0,89,0.00,,,0.00,Wunderground v.1.15,2013-09-20 01:29:00,
2013-09-19 20:34:00,81.3,77.7,29.97,ESE,105,5.0,9.0,89,0.00,,,0.00,Wunderground v.1.15,2013-09-20 01:34:00,
2013-09-19 20:39:00,81.2,78.0,29.96,SE,125,4.0,5.0,90,0.00,,,0.00,Wunderground v.1.15,2013-09-20 01:39:00,
2013-09-19 20:44:00,81.2,77.6,29.96,SE,134,6.0,12.0,89,0.00,,,0.00,Wunderground v.1.15,2013-09-20 01:44:00,
2013-09-19 20:49:00,81.2,77.6,29.96,ESE,117,6.0,6.0,89,0.00,,,0.00,Wunderground v.1.15,2013-09-20 01:49:00,
2013-09-19 20:54:00,81.3,77.7,29.97,SE,125,6.0,11.0,89,0.00,,,0.00,Wunderground v.1.15,2013-09-20 01:54:00,
2013-09-19 20:59:00,81.3,78.1,29.97,South,187,2.0,6.0,90,0.00,,,0.00,Wunderground v.1.15,2013-09-20 01:59:00,
2013-09-19 21:05:00,81.4,77.8,29.97,East,96,6.0,11.0,89,0.00,,,0.00,Wunderground v.1.15,2013-09-20 02:05:00,
2013-09-19 21:10:00,81.4,77.8,29.97,SE,129,5.0,8.0,89,0.00,,,0.00,Wunderground v.1.15,2013-09-20 02:10:00,
2013-09-19 21:15:00,81.4,77.8,29.97,SE,124,8.0,14.0,89,0.00,,,0.00,Wunderground v.1.15,2013-09-20 02:15:00,
2013-09-19 21:20:00,81.5,77.9,29.97,SE,128,4.0,5.0,89,0.00,,,0.00,Wunderground v.1.15,2013-09-20 02:20:00,
2013-09-19 21:25:00,81.5,77.9,29.97,SE,145,4.0,10.0,89,0.00,,,0.00,Wunderground v.1.15,2013-09-20 02:25:00,
2013-09-19 21:30:00,81.6,77.7,29.98,SE,130,5.0,7.0,88,0.00,,,0.00,Wunderground v.1.15,2013-09-20 02:30:00,
2013-09-19 21:35:00,81.7,78.1,29.98,ESE,114,7.0,12.0,89,0.00,,,0.00,Wunderground v.1.15,2013-09-20 02:35:00,
2013-09-19 21:40:00,81.7,78.1,29.98,ESE,105,7.0,7.0,89,0.00,,,0.00,Wunderground v.1.15,2013-09-20 02:40:00,
2013-09-19 21:45:00,80.8,77.3,29.98,ESE,104,5.0,15.0,89,1.06,,,0.06,Wunderground v.1.15,2013-09-20 02:45:00,
2013-09-19 21:50:00,79.7,77.2,29.98,SE,126,5.0,8.0,92,0.14,,,0.08,Wunderground v.1.15,2013-09-20 02:50:00,
2013-09-19 21:55:00,79.7,77.8,29.98,SE,136,6.0,11.0,94,0.07,,,0.08,Wunderground v.1.15,2013-09-20 02:55:00,
2013-09-19 22:00:00,80.1,77.9,29.98,SE,136,6.0,6.0,93,0.04,,,0.08,Wunderground v.1.15,2013-09-20 03:00:00,
2013-09-19 22:05:00,80.4,77.5,29.98,East,100,6.0,12.0,91,0.00,,,0.08,Wunderground v.1.15,2013-09-20 03:05:00,
2013-09-19 22:10:00,80.8,78.3,29.98,East,91,4.0,6.0,92,0.00,,,0.08,Wunderground v.1.15,2013-09-20 03:10:00,
2013-09-19 22:15:00,80.7,77.8,29.99,SE,126,7.0,9.0,91,0.00,,,0.08,Wunderground v.1.15,2013-09-20 03:15:00,
2013-09-19 22:20:00,80.7,77.5,29.99,ESE,107,9.0,9.0,90,0.00,,,0.08,Wunderground v.1.15,2013-09-20 03:20:00,
2013-09-19 22:25:00,80.7,77.5,29.99,SE,128,3.0,10.0,90,0.00,,,0.08,Wunderground v.1.15,2013-09-20 03:25:00,
2013-09-19 22:30:00,80.7,76.8,29.99,SSE,158,7.0,9.0,88,0.00,,,0.08,Wunderground v.1.15,2013-09-20 03:30:00,
2013-09-19 22:35:00,80.8,76.9,29.98,ESE,112,6.0,10.0,88,0.00,,,0.08,Wunderground v.1.15,2013-09-20 03:35:00,
2013-09-19 22:40:00,81.1,76.9,29.99,ESE,122,4.0,13.0,87,0.00,,,0.08,Wunderground v.1.15,2013-09-20 03:40:00,
2013-09-19 22:45:00,81.2,77.3,29.98,SSE,156,4.0,13.0,88,0.00,,,0.08,Wunderground v.1.15,2013-09-20 03:45:00,
2013-09-19 22:50:00,81.3,77.4,29.98,SE,130,4.0,5.0,88,0.00,,,0.08,Wunderground v.1.15,2013-09-20 03:50:00,
2013-09-19 22:55:00,81.3,76.7,29.98,SE,142,9.0,12.0,86,0.00,,,0.08,Wunderground v.1.15,2013-09-20 03:55:00,
2013-09-19 23:00:00,81.5,77.3,29.98,East,94,5.0,10.0,87,0.00,,,0.08,Wunderground v.1.15,2013-09-20 04:00:00,
2013-09-19 23:01:00,81.6,77.4,29.98,ESE,108,5.0,10.0,87,0.00,,,0.08,Wunderground v.1.15,2013-09-20 04:01:00,
2013-09-19 23:06:00,81.6,77.7,29.99,SE,128,5.0,11.0,88,0.00,,,0.08,Wunderground v.1.15,2013-09-20 04:06:00,
2013-09-19 23:11:00,81.7,77.8,29.98,ESE,110,6.0,12.0,88,0.00,,,0.08,Wunderground v.1.15,2013-09-20 04:11:00,
2013-09-19 23:16:00,81.7,77.8,29.98,ESE,117,5.0,12.0,88,0.00,,,0.08,Wunderground v.1.15,2013-09-20 04:16:00,
2013-09-19 23:21:00,81.8,78.2,29.98,ENE,78,4.0,6.0,89,0.00,,,0.08,Wunderground v.1.15,2013-09-20 04:21:00,
2013-09-19 23:26:00,81.8,78.2,29.98,SE,138,6.0,12.0,89,0.00,,,0.08,Wunderground v.1.15,2013-09-20 04:26:00,
2013-09-19 23:31:00,81.9,78.3,29.98,SSE,162,7.0,14.0,89,0.00,,,0.08,Wunderground v.1.15,2013-09-20 04:31:00,
2013-09-19 23:36:00,81.9,78.3,29.98,SSE,158,5.0,16.0,89,0.00,,,0.08,Wunderground v.1.15,2013-09-20 04:36:00,
2013-09-19 23:41:00,82.0,77.4,29.98,SE,145,5.0,10.0,86,0.00,,,0.08,Wunderground v.1.15,2013-09-20 04:41:00,
2013-09-19 23:46:00,82.1,77.1,29.98,ESE,102,5.0,13.0,85,0.00,,,0.08,Wunderground v.1.15,2013-09-20 04:46:00,
2013-09-19 23:51:00,82.1,76.8,29.98,SE,125,8.0,12.0,84,0.00,,,0.08,Wunderground v.1.15,2013-09-20 04:51:00,
2013-09-19 23:56:00,82.2,76.9,29.98,SE,142,4.0,15.0,84,0.00,,,0.00,Wunderground v.1.15,2013-09-20 04:56:00,